Flag for Germany Weather past 2 weeks in Münster, North Rhine-Westphalia, Germany

Now
45 °F

Partly cloudy.


Feels Like: 41 °F
Forecast: 37 / 62 °F
Wind: 6 mph from Northwest

Location: Muenster / Osnabrueck


UV Index: 0 (Low)

Visibility: N/A


Pressure: 29.98 "Hg

Humidity: 81%

Dew point: 39 °F

Location of MünsterLocation

Historic Weather in Münster

°F

Münster temperature yesterday

Maximum temperature yesterday: 54 °F (at 4:50 PM)
Minimum temperature yesterday: 41 °F (at 6:50 AM)
Average temperature yesterday: 47 °F

Past Weeks' High & Low Weather Summary

 TemperatureHumidityPressure
High70 °F (Apr 7, 3:50 PM)100% (Apr 4, 11:50 PM)30.48 "Hg (Apr 4, 11:50 PM)
Low28 °F (Apr 16, 6:20 AM)29% (Apr 17, 3:50 PM)29.68 "Hg (Apr 3, 11:20 PM)
Average51 °F75%30.05 "Hg
* Reported Apr 3 11:20 PM — Apr 18 11:20 PM, Münster, Weather by CustomWeather, © 2014

Note: Actual official high and low records may vary slightly from our data, if they occured in-between our weather recording intervals... More about our weather records

Advertising

Historic Weather Conditions — Data for Previous 24 hours

 ConditionsComfort  
Time TempWeatherWind HumidityBarometerVisibility
11:20 PM
Apr 18
45 °FPartly cloudy.10 mph81%29.98 "HgN/A
10:50 PM46 °FClear.8 mph76%29.98 "Hg10 mi
10:20 PM46 °FClear.10 mph71%29.98 "Hg10 mi
9:50 PM48 °FPassing clouds.10 mph71%29.98 "HgN/A
9:20 PM48 °FBroken clouds.10 mph71%29.95 "HgN/A
8:50 PM48 °FBroken clouds.8 mph66%29.95 "HgN/A
8:20 PM48 °FBroken clouds.8 mph66%29.95 "HgN/A
7:50 PM48 °FSunny.12 mph66%29.95 "Hg10 mi
7:20 PM50 °FPartly sunny.12 mph58%29.95 "HgN/A
6:50 PM50 °FPartly sunny.13 mph58%29.95 "HgN/A
6:20 PM50 °FScattered clouds.14 mph67%29.95 "HgN/A
5:50 PM52 °FScattered clouds.13 mph62%29.92 "HgN/A
5:20 PM52 °FScattered clouds.16 mph58%29.92 "HgN/A
4:50 PM54 °FScattered clouds.13 mph58%29.92 "HgN/A
4:20 PM52 °FScattered clouds.14 mph58%29.92 "HgN/A
3:20 PM52 °FPartly sunny.12 mph58%29.92 "HgN/A
2:50 PM52 °FScattered clouds.12 mph54%29.92 "HgN/A
2:20 PM48 °FSprinkles. Partly sunny.13 mph71%29.92 "HgN/A
1:50 PM50 °FPartly sunny.10 mph58%29.92 "HgN/A
1:20 PM48 °FSprinkles. Partly sunny.10 mph62%29.92 "HgN/A
12:50 PM48 °FPartly sunny.13 mph62%29.92 "HgN/A
12:20 PM50 °FPartly sunny.13 mph62%29.92 "HgN/A
11:50 AM48 °FBroken clouds.12 mph62%29.92 "HgN/A
11:20 AM48 °FBroken clouds.10 mph71%29.92 "HgN/A
10:50 AM46 °FBroken clouds.13 mph71%29.92 "HgN/A
10:20 AM46 °FBroken clouds.9 mph76%29.92 "HgN/A
9:50 AM46 °FPartly sunny.9 mph76%29.92 "HgN/A
9:20 AM45 °FPartly sunny.12 mph81%29.92 "HgN/A
8:50 AM45 °FPartly sunny.9 mph87%29.89 "HgN/A
8:20 AM45 °FPassing clouds.9 mph81%29.89 "HgN/A
7:50 AM43 °FPassing clouds.7 mph87%29.89 "HgN/A
7:20 AM43 °FPassing clouds.7 mph87%29.89 "HgN/A
6:50 AM41 °FPassing clouds.8 mph93%29.89 "HgN/A
6:20 AM43 °FPassing clouds.7 mph87%29.89 "HgN/A
5:50 AM43 °FPassing clouds.8 mph93%29.86 "HgN/A
5:20 AM43 °FClear.7 mph87%29.86 "Hg10 mi
4:50 AM43 °FClear.8 mph93%29.86 "Hg10 mi
4:20 AM43 °FClear.9 mph100%29.86 "Hg10 mi
3:50 AM45 °FClear.8 mph93%29.86 "Hg10 mi
3:20 AM45 °FPassing clouds.8 mph93%29.86 "HgN/A
2:50 AM45 °FPassing clouds.6 mph100%29.86 "HgN/A
2:20 AM46 °FPassing clouds.7 mph93%29.86 "HgN/A
1:20 AM46 °FLight rain. Partly cloudy.7 mph93%29.89 "HgN/A
12:50 AM46 °FLight rain. Passing clouds.6 mph93%29.89 "HgN/A
12:20 AM48 °FLight rain. Partly cloudy.8 mph94%29.89 "Hg6 mi
Weather by CustomWeather, © 2014

See weather overview